Simultaneous Nadir Overpasses (SNOs) Predictions

Prediction of SNOs between METOP-B and NOAA-19 Satellite Orbit:

Table of predicted SNOs for the next 14.0 days since TLE Epoch: 6/16/2022
Index Date (METOP-B) Time (METOP-B) Lat,Lon (METOP-B) SZA (METOP-B ) Date (NOAA-19) Time (NOAA-19) Lat,Lon (NOAA-19) SZA (NOAA-19 ) Distance(km) Time Diff (sec)
1 06/26/2022 01:03:39 -80.85, 17.44 121.00 06/26/2022 01:02:33 -80.85, 17.62 121.01 3.06 66
2 06/26/2022 01:54:19 80.85,-175.18 59.01 06/26/2022 01:53:38 80.85,-175.12 58.99 1.11 41
3 06/26/2022 02:45:01 -80.84, -8.04 121.02 06/26/2022 02:44:33 -80.85, -7.92 121.01 2.23 28
4 06/26/2022 03:35:41 80.85, 159.33 58.99 06/26/2022 03:35:38 80.85, 159.33 58.99 0.54 3
5 06/26/2022 04:26:22 -80.85, -33.17 120.99 06/26/2022 04:26:32 -80.84, -33.10 120.99 1.67 10
6 06/26/2022 05:17:02 80.86, 134.20 59.02 06/26/2022 05:17:37 80.84, 134.16 59.02 1.50 35
7 06/26/2022 06:07:44 -80.85, -58.66 121.01 06/26/2022 06:08:32 -80.85, -58.64 120.99 0.35 48



Historial Predications of SNOs between METOP-B and NOAA-19
